{"data":{"norad_id":65995,"intl_designator":"2025-231A","name":"HULIANWANG DIGUI-87","alt_names":[],"object_type":"PAYLOAD","status":"ACTIVE","operator":null,"country":"PRC","launch_date":"2025-10-16","launch_site_code":"WSC","launch_vehicle":null,"mission":null,"orbit_class":"UNKNOWN","rcs_meters":null,"size_class":null,"mass_kg":null,"dimensions":null,"purposes":[],"wikipedia_slug":null,"has_3d_model":false,"image_url":null,"decayed_at":null,"tle_current":{"epoch":"2026-09-20T11:49:17.057856Z","epoch_age_seconds":141056,"freshness":"FRESH","line1":"1 65995U 25231A   26263.49255854 -.00000105  00000+0  41043-4 0  9990","line2":"2 65995  49.9993 193.9957 0000399  44.4072 315.6832 13.29328298 45569","mean_motion":13.29328298,"eccentricity":3.99e-5,"inclination_deg":49.9993,"raan_deg":193.9957,"arg_perigee_deg":44.4072,"mean_anomaly_deg":315.6832,"bstar":4.1043e-5,"rev_number":4556,"period_min":108.32538524656,"perigee_km":1148.9975521082,"apogee_km":1149.598241413,"semimajor_km":7527.4348967606,"source":"CELESTRAK","updated_at":"2026-09-21T09:00:15.692116Z"}}}